This demonstration page uses our WeatherBlox Daily Observations layout. Learn more.

Left ArrowRight Arrow

44.89941, -97.11507

Hourly Observations for January 7, 2021

Temp ( °F °C ) Dew Point ( °F °C ) Humidity (%) Winds ( mph kmh ) Pressure ( in mb ) Visibility ( mi km ) Precip ( " mm )
12:53 am 00:53 Cloudy with Mist and Fog 30 -1.1 29 -1.7 96 96 ESE 7 11 30.30 1026 4 6 0.00 0.00
1:53 am 01:53 Cloudy with Mist and Fog 30 -1.1 29 -1.7 96 96 ESE 7 11 30.30 1026 4 6 0.00 0.00
2:53 am 02:53 Cloudy with Mist and Fog 29 -1.7 28 -2.2 96 96 ESE 7 11 30.32 1027 4 6 0.00 0.00
3:53 am 03:53 Clear with Mist and Fog 28 -2.2 26 -3.3 92 92 S 5 7 30.31 1026 4 6 0.00 0.00
4:33 am 04:33 Clear with Mist and Fog 26 -3.3 25 -3.9 96 96 Calm 30.35 1028 3 4 0.00 0.00
4:37 am 04:37 Clear with Mist and Fog 25 -3.9 24 -4.4 96 96 Calm 30.36 1028 1 2 0.00 0.00
4:44 am 04:44 Clear with Freezing Fog 24 -4.4 23 -5 96 96 N 6 9 30.36 1028 1 1 0.00 0.00
4:53 am 04:53 Clear with Mist and Fog 23 -5 22 -5.6 96 96 N 6 9 30.32 1027 1 2 0.00 0.00
5:19 am 05:19 Clear with Mist and Fog 23 -5 22 -5.6 96 96 Calm 30.37 1028 2 3 0.00 0.00
5:39 am 05:39 Clear with Mist and Fog 24 -4.4 23 -5 96 96 Calm 30.36 1028 1 2 0.00 0.00
5:53 am 05:53 Clear with Mist and Fog 23 -5 23 -5 100 100 Calm 30.32 1027 2 2 0.00 0.00
6:07 am 06:07 Clear with Mist and Fog 24 -4.4 23 -5 96 96 Calm 30.37 1029 3 4 0.00 0.00
6:31 am 06:31 Clear with Mist and Fog 24 -4.4 23 -5 96 96 Calm 30.38 1029 3 5 0.00 0.00
6:53 am 06:53 Partly Cloudy with Mist and Fog 20 -6.7 19 -7.2 96 96 Calm 30.35 1028 3 5 0.00 0.00
7:21 am 07:21 Mostly Cloudy with Mist and Fog 21 -6.1 19 -7.2 92 92 Calm 30.42 1030 3 4 0.00 0.00
7:33 am 07:33 Mostly Cloudy with Mist and Fog 20 -6.7 20 -6.7 100 100 Calm 30.42 1030 3 5 0.00 0.00
7:53 am 07:53 Cloudy with Mist and Fog 20 -6.7 18 -7.8 92 92 Calm 30.37 1029 4 6 0.00 0.00
8:51 am 08:51 Cloudy with Mist and Fog 23 -5 21 -6 93 93 ESE 6 9 30.41 1030 2 3 0.00 0.00
8:53 am 08:53 Cloudy with Mist and Fog 23 -5 21 -6.1 92 92 ESE 6 9 30.36 1028 1 2 0.00 0.00
9:13 am 09:13 Mostly Cloudy with Mist and Fog 22 -5.6 21 -6.1 96 96 ESE 6 9 30.42 1030 2 3 0.00 0.00
9:24 am 09:24 Mostly Cloudy with Mist and Fog 22 -5.6 21 -6.1 96 96 ESE 6 9 30.42 1030 4 6 0.00 0.00
9:53 am 09:53 Mostly Cloudy with Mist and Fog 24 -4.4 23 -5 96 96 ESE 5 7 30.37 1029 5 8 0.00 0.00
10:53 am 10:53 Sunny 29 -1.7 25 -3.9 85 85 SE 5 7 30.37 1029 7 11 0.00 0.00
11:53 am 11:53 Sunny 31 -0.6 26 -3.3 82 82 SE 7 11 30.35 1028 7 11 0.00 0.00
12:53 pm 12:53 Hazy 33 0.6 28 -2.2 82 82 VRB 6 9 30.34 1028 6 10 0.00 0.00
1:53 pm 13:53 Hazy 34 1.1 29 -1.7 82 82 ESE 7 11 30.33 1027 6 10 0.00 0.00
2:53 pm 14:53 Sunny with Mist and Fog 34 1.1 30 -1.1 85 85 SE 6 9 30.34 1027 5 8 0.00 0.00
3:28 pm 15:28 Mostly Cloudy with Mist and Fog 33 0.6 30 -1.1 89 89 SE 5 7 30.37 1028 5 8 0.00 0.00
3:53 pm 15:53 Cloudy with Mist and Fog 33 0.6 29 -1.7 85 85 SE 7 11 30.36 1028 4 6 0.00 0.00
4:14 pm 16:14 Cloudy with Mist and Fog 32 0 30 -1.1 92 92 ESE 3 6 30.38 1029 3 5 0.00 0.00
4:50 pm 16:50 Cloudy with Mist and Fog 32 0 30 -1 93 93 ESE 3 6 30.39 1029 3 4 0.00 0.00
4:53 pm 16:53 Cloudy with Mist and Fog 32 0 30 -1.1 92 92 SE 5 7 30.38 1029 3 4 0.00 0.00
5:26 pm 17:26 Cloudy with Mist and Fog 31 -0.6 30 -1.1 96 96 SE 5 7 30.39 1029 3 5 0.00 0.00
5:53 pm 17:53 Cloudy with Mist and Fog 31 -0.6 30 -1.1 96 96 SE 5 7 30.38 1029 3 5 0.00 0.00
6:36 pm 18:36 Cloudy with Mist and Fog 31 -0.6 30 -1.1 96 96 ESE 3 6 30.39 1029 3 4 0.00 0.00
6:53 pm 18:53 Cloudy with Mist and Fog 31 -0.6 30 -1.1 96 96 SE 5 7 30.39 1029 3 4 0.00 0.00
7:21 pm 19:21 Cloudy with Mist and Fog 30 -1.1 29 -1.7 96 96 ESE 6 9 30.42 1030 2 3 0.00 0.00
7:43 pm 19:43 Cloudy with Mist and Fog 29 -1.7 29 -1.7 100 100 ESE 7 11 30.42 1030 1 2 0.00 0.00
7:53 pm 19:53 Cloudy with Mist and Fog 29 -1.7 29 -1.7 100 100 ESE 6 9 30.41 1030 1 2 0.00 0.00
8:43 pm 20:43 Cloudy with Mist and Fog 30 -1.1 30 -1.1 100 100 SE 5 7 30.42 1030 2 2 0.00 0.00
8:53 pm 20:53 Cloudy with Mist and Fog 30 -1.1 29 -1.7 96 96 S 9 15 30.40 1030 2 3 0.00 0.00
9:04 pm 21:04 Cloudy with Mist and Fog 30 -1.1 29 -1.7 96 96 SSE 8 13 30.42 1030 3 5 0.00 0.00
9:20 pm 21:20 Cloudy with Mist and Fog 30 -1.1 29 -1.7 96 96 S 9 15 30.42 1030 3 5 0.00 0.00
9:53 pm 21:53 Cloudy with Mist and Fog 30 -1.1 29 -1.7 96 96 SSE 10 17 30.40 1030 3 5 0.00 0.00
10:01 pm 22:01 Cloudy with Mist and Fog 30 -1.1 29 -1.7 96 96 SSE 9 15 30.42 1030 3 5 0.00 0.00
10:53 pm 22:53 Cloudy with Mist and Fog 29 -1.7 28 -2.2 96 96 S 8 13 30.41 1030 3 5 0.00 0.00
11:03 pm 23:03 Cloudy with Mist and Fog 29 -1.7 28 -2.2 96 96 S 8 13 30.43 1031 3 4 0.00 0.00
11:34 pm 23:34 Cloudy with Mist and Fog 28 -2.2 28 -2.2 100 100 S 7 11 30.44 1031 2 3 0.00 0.00
11:45 pm 23:45 Cloudy with Mist and Fog 28 -2.2 28 -2.2 100 100 SSE 8 13 30.44 1031 2 3 0.00 0.00
11:53 pm 23:53 Cloudy with Mist and Fog 28 -2.2 28 -2.2 100 100 SSE 7 11 30.40 1030 1 2 0.00 0.00

Powered by AerisWeather